Weather History for Menominee, MI

Change the Weather History Date:

Wednesday, February 20, 2013

  Actual Average Record
Temperature  
Mean Temperature 16 °F -  
Max Temperature 23 °F 34 °F 52 °F (1981)
Min Temperature 8 °F 14 °F -12 °F (1959)
Degree Days  
Heating Degree Days 50    
Moisture  
Dew Point 5 °F    
Average Humidity 64    
Maximum Humidity 79    
Minimum Humidity 46    
Precipitation  
Precipitation 0.00 in - - ()
Sea Level Pressure  
Sea Level Pressure 30.26 in    
Wind  
Wind Speed 11 mph (NNW)    
Max Wind Speed 21 mph    
Max Gust Speed 28 mph    
Visibility 10 miles    
Events      
Averages and records for this station are not official NWS values.
T = Trace of Precipitation, MM = Missing Value Source: NWS Daily Summary

Daily Weather History Graph

Daily Weather History Graph

Search for Another Location

Airport:

Trip Planner

Search our weather history database for the weather conditions in past years. The results will help you decide how hot, cold, wet, or windy it might be!

Date:

Astronomy

Feb. 20, 2013 Rise Set
Actual Time 6:43 AM CST 5:25 PM CST
Civil Twilight 6:13 AM CST 5:55 PM CST
Nautical Twilight 5:39 AM CST 6:30 PM CST
Astronomical Twilight 5:05 AM CST 7:04 PM CST
Moon 12:38 PM CST (2/20) 3:11 AM CST (2/20)
Length of Visible Light 11h 42m
Length of Day
10h 42m
Waxing Gibbous, 76% of the Moon is Illuminated
Feb 20
Waxing Gibbous
Feb 25
Full
Mar 4
Last Quarter
Mar 11
New
Mar 19
First Quarter

Hourly Weather History & Observations

Time (CST) Temp. Windchill Dew Point Humidity Pressure Visibility Wind Dir Wind Speed Gust Speed Precip Events Conditions
12:15 AM 8.6 °F 0.1 °F 1.4 °F 73% 30.05 in 10.0 mi West 4.6 mph - N/A   Mostly Cloudy
12:35 AM 8.6 °F 0.1 °F 3.2 °F 79% 30.07 in 10.0 mi West 4.6 mph - N/A   Mostly Cloudy
12:55 AM 8.6 °F 0.1 °F 3.2 °F 79% 30.07 in 10.0 mi WNW 4.6 mph - N/A   Mostly Cloudy
1:15 AM 10.4 °F -4.8 °F 3.2 °F 73% 30.07 in 10.0 mi NNW 12.7 mph 17.3 mph N/A   Mostly Cloudy
1:35 AM 10.4 °F -6.0 °F 3.2 °F 73% 30.08 in 10.0 mi NNW 15.0 mph 19.6 mph N/A   Partly Cloudy
1:55 AM 10.4 °F -4.8 °F 1.4 °F 67% 30.08 in 10.0 mi NNW 12.7 mph - N/A   Scattered Clouds
2:15 AM 10.4 °F -4.1 °F 3.2 °F 73% 30.09 in 10.0 mi NNW 11.5 mph - N/A   Overcast
2:35 AM 12.2 °F -2.5 °F 5.0 °F 73% 30.09 in 10.0 mi NNW 12.7 mph 21.9 mph N/A   Overcast
3:15 AM 12.2 °F -1.0 °F 3.2 °F 67% 30.12 in 10.0 mi NNW 10.4 mph 17.3 mph N/A   Overcast
3:35 AM 12.2 °F -1.8 °F 3.2 °F 67% 30.13 in 10.0 mi NNW 11.5 mph 20.7 mph N/A   Overcast
3:55 AM 12.2 °F -1.0 °F 3.2 °F 67% 30.14 in 10.0 mi NNW 10.4 mph - N/A   Overcast
4:15 AM 12.2 °F -4.8 °F 3.2 °F 67% 30.15 in 10.0 mi NNW 17.3 mph 23.0 mph N/A   Overcast
4:35 AM 12.2 °F -0.2 °F 3.2 °F 67% 30.17 in 10.0 mi NNW 9.2 mph - N/A   Overcast
4:55 AM 10.4 °F -4.8 °F 3.2 °F 73% 30.17 in 10.0 mi NNW 12.7 mph 20.7 mph N/A   Overcast
5:15 AM 10.4 °F -4.8 °F 1.4 °F 67% 30.18 in 10.0 mi NNW 12.7 mph 23.0 mph N/A   Overcast
5:35 AM 10.4 °F -4.1 °F 1.4 °F 67% 30.18 in 10.0 mi NNW 11.5 mph 17.3 mph N/A   Overcast
5:55 AM 10.4 °F -5.4 °F 1.4 °F 67% 30.19 in 10.0 mi NNW 13.8 mph 21.9 mph N/A   Mostly Cloudy
6:15 AM 10.4 °F -4.1 °F 3.2 °F 73% 30.20 in 10.0 mi NNW 11.5 mph 18.4 mph N/A   Mostly Cloudy
6:55 AM 10.4 °F -4.8 °F 1.4 °F 67% 30.21 in 10.0 mi NNW 12.7 mph 17.3 mph N/A   Clear
7:15 AM 10.4 °F -5.4 °F 3.2 °F 73% 30.21 in 10.0 mi NNW 13.8 mph 17.3 mph N/A   Clear
7:35 AM 10.4 °F -7.2 °F 1.4 °F 67% 30.22 in 10.0 mi NNW 17.3 mph 23.0 mph N/A   Clear
7:55 AM 10.4 °F -6.6 °F 1.4 °F 67% 30.23 in 10.0 mi NNW 16.1 mph 23.0 mph N/A   Clear
8:15 AM 12.2 °F -4.3 °F 1.4 °F 62% 30.23 in 10.0 mi NNW 16.1 mph 26.5 mph N/A   Clear
8:35 AM 12.2 °F -3.7 °F 3.2 °F 67% 30.23 in 10.0 mi NNW 15.0 mph 24.2 mph N/A   Scattered Clouds
9:15 AM 12.2 °F -4.8 °F 1.4 °F 62% 30.24 in 10.0 mi NNW 17.3 mph 21.9 mph N/A   Mostly Cloudy
9:35 AM 14.0 °F -1.4 °F 5.0 °F 67% 30.24 in 10.0 mi North 15.0 mph 24.2 mph N/A   Mostly Cloudy
9:55 AM 14.0 °F -2.5 °F 1.4 °F 57% 30.24 in 10.0 mi North 17.3 mph 27.6 mph N/A   Scattered Clouds
10:15 AM 15.8 °F -0.6 °F 5.0 °F 62% 30.25 in 10.0 mi North 18.4 mph 26.5 mph N/A   Partly Cloudy
10:35 AM 15.8 °F 0.9 °F 6.8 °F 68% 30.26 in 10.0 mi North 15.0 mph 20.7 mph N/A   Scattered Clouds
10:55 AM 15.8 °F -1.5 °F 3.2 °F 58% 30.26 in 10.0 mi North 20.7 mph 27.6 mph N/A   Scattered Clouds
11:15 AM 17.6 °F 2.2 °F 6.8 °F 63% 30.26 in 10.0 mi North 17.3 mph 21.9 mph N/A   Partly Cloudy
11:35 AM 17.6 °F 3.2 °F 3.2 °F 53% 30.26 in 10.0 mi North 15.0 mph 24.2 mph N/A   Clear
11:55 AM 17.6 °F 2.7 °F 6.8 °F 63% 30.26 in 10.0 mi North 16.1 mph 21.9 mph N/A   Clear
12:15 PM 19.4 °F 5.5 °F 6.8 °F 58% 30.26 in 10.0 mi North 15.0 mph 20.7 mph N/A   Clear
12:35 PM 19.4 °F 4.5 °F 5.0 °F 54% 30.26 in 10.0 mi NNW 17.3 mph 24.2 mph N/A   Clear
12:55 PM 19.4 °F 6.0 °F 6.8 °F 58% 30.26 in 10.0 mi North 13.8 mph 24.2 mph N/A   Clear
1:15 PM 21.2 °F 7.3 °F 5.0 °F 50% 30.26 in 10.0 mi North 16.1 mph 24.2 mph N/A   Clear
1:35 PM 21.2 °F 8.3 °F 6.8 °F 54% 30.26 in 10.0 mi North 13.8 mph 20.7 mph N/A   Clear
1:55 PM 21.2 °F 7.8 °F 6.8 °F 54% 30.26 in 10.0 mi North 15.0 mph 23.0 mph N/A   Clear
2:15 PM 21.2 °F 6.8 °F 6.8 °F 54% 30.26 in 10.0 mi North 17.3 mph 23.0 mph N/A   Clear
2:35 PM 21.2 °F 10.9 °F 6.8 °F 54% 30.26 in 10.0 mi NNW 9.2 mph - N/A   Clear
2:55 PM 23.0 °F 11.7 °F 6.8 °F 50% 30.27 in 10.0 mi NNW 11.5 mph 21.9 mph N/A   Clear
3:15 PM 23.0 °F 9.6 °F 6.8 °F 50% 30.28 in 10.0 mi North 16.1 mph 20.7 mph N/A   Clear
3:35 PM 23.0 °F 11.1 °F 5.0 °F 46% 30.29 in 10.0 mi NNW 12.7 mph 16.1 mph N/A   Clear
3:55 PM 23.0 °F 10.6 °F 5.0 °F 46% 30.31 in 10.0 mi NNW 13.8 mph 19.6 mph N/A   Clear
4:15 PM 21.2 °F 10.1 °F 6.8 °F 54% 30.32 in 10.0 mi NNW 10.4 mph - N/A   Clear
4:35 PM 21.2 °F 9.5 °F 6.8 °F 54% 30.32 in 10.0 mi North 11.5 mph - N/A   Clear
4:55 PM 21.2 °F 9.5 °F 6.8 °F 54% 30.32 in 10.0 mi North 11.5 mph 17.3 mph N/A   Clear
5:15 PM 21.2 °F 11.7 °F 6.8 °F 54% 30.33 in 10.0 mi North 8.1 mph - N/A   Clear
5:35 PM 19.4 °F 8.6 °F 6.8 °F 58% 30.34 in 10.0 mi North 9.2 mph - N/A   Clear
5:55 PM 19.4 °F 8.6 °F 6.8 °F 58% 30.34 in 10.0 mi North 9.2 mph - N/A   Clear
6:15 PM 19.4 °F 7.9 °F 6.8 °F 58% 30.35 in 10.0 mi North 10.4 mph - N/A   Clear
6:35 PM 19.4 °F 9.5 °F 5.0 °F 54% 30.35 in 10.0 mi North 8.1 mph - N/A   Clear
6:55 PM 17.6 °F 7.3 °F 5.0 °F 58% 30.35 in 10.0 mi North 8.1 mph - N/A   Clear
7:15 PM 17.6 °F 7.3 °F 6.8 °F 63% 30.36 in 10.0 mi North 8.1 mph - N/A   Clear
7:35 PM 17.6 °F 6.4 °F 5.0 °F 58% 30.37 in 10.0 mi NNE 9.2 mph - N/A   Clear
7:55 PM 15.8 °F 3.4 °F 5.0 °F 62% 30.37 in 10.0 mi North 10.4 mph - N/A   Clear
8:15 PM 15.8 °F 2.7 °F 6.8 °F 68% 30.38 in 10.0 mi North 11.5 mph - N/A   Clear
8:35 PM 15.8 °F 5.1 °F 5.0 °F 62% 30.38 in 10.0 mi North 8.1 mph - N/A   Partly Cloudy
8:55 PM 14.0 °F 2.9 °F 5.0 °F 67% 30.38 in 10.0 mi North 8.1 mph - N/A   Mostly Cloudy
9:15 PM 12.2 °F -1.0 °F 5.0 °F 73% 30.38 in 10.0 mi North 10.4 mph - N/A   Partly Cloudy
9:35 PM 12.2 °F 1.7 °F 5.0 °F 73% 30.38 in 10.0 mi North 6.9 mph - N/A   Clear
9:55 PM 12.2 °F 1.7 °F 5.0 °F 73% 30.37 in 10.0 mi North 6.9 mph - N/A   Scattered Clouds
10:15 PM 12.2 °F -0.2 °F 6.8 °F 79% 30.37 in 9.0 mi North 9.2 mph - N/A   Mostly Cloudy
10:35 PM 12.2 °F -1.0 °F 5.0 °F 73% 30.36 in 10.0 mi NNW 10.4 mph - N/A   Overcast
10:55 PM 12.2 °F -1.8 °F 5.0 °F 73% 30.36 in 10.0 mi NNW 11.5 mph - N/A   Mostly Cloudy
11:15 PM 12.2 °F 0.7 °F 6.8 °F 79% 30.37 in 10.0 mi NNW 8.1 mph - N/A   Mostly Cloudy
11:35 PM 12.2 °F 0.7 °F 5.0 °F 73% 30.36 in 10.0 mi NNW 8.1 mph - N/A   Mostly Cloudy
11:55 PM 12.2 °F 0.7 °F 3.2 °F 67% 30.36 in 10.0 mi NNW 8.1 mph - N/A   Scattered Clouds